Weather History for KMPV - December, 2014

Change the Weather History Date:

Saturday, December 6, 2014

  Actual Average Record
Temperature  
Mean Temperature 30 °F 27 °F  
Max Temperature 32 °F 35 °F 67 °F (2001)
Min Temperature 27 °F 19 °F -4 °F (1954)
Degree Days  
Heating Degree Days 35 38  
Month to date heating degree days 232 222  
Since 1 July heating degree days 2050 2068  
Cooling Degree Days 0 0  
Month to date cooling degree days 0 0  
Year to date cooling degree days 188 264  
Moisture  
Dew Point 28 °F    
Average Humidity 93    
Maximum Humidity 100    
Minimum Humidity 85    
Precipitation  
Precipitation 0.47 in 0.10 in 0.95 in ()
Month to date precipitation 0.78 0.60  
Year to date precipitation 33.57 35.13  
Sea Level Pressure  
Sea Level Pressure 30.29 in    
Wind  
Wind Speed 3 mph (NW)    
Max Wind Speed 14 mph    
Max Gust Speed 19 mph    
Visibility 3 miles    
Events Rain , Snow    
T = Trace of Precipitation, MM = Missing Value Source: NWS Daily Summary

Daily Weather History Graph

Daily Weather History Graph

Search for Another Location

Airport or City:

Trip Planner

Search our weather history database for the weather conditions in past years. The results will help you decide how hot, cold, wet, or windy it might be!

Date:

Astronomy

Dec. 06, 2014 Rise Set
Actual Time 7:10 AM EST 4:11 PM EST
Civil Twilight 6:38 AM EST 4:44 PM EST
Nautical Twilight 6:01 AM EST 5:20 PM EST
Astronomical Twilight 5:26 AM EST 5:55 PM EST
Moon 4:47 PM EST (12/6) 6:56 AM EST (12/6)
Length of Visible Light 10h 06m
Length of Day
9h 00m
Full, 100% of the Moon is Illuminated
Dec 6
Full
Dec 14
Last Quarter
Dec 21
New
Dec 28
First Quarter
Jan 4
Full

Hourly Weather History & Observations

Time (EST) Temp. Windchill Dew Point Humidity Pressure Visibility Wind Dir Wind Speed Gust Speed Precip Events Conditions
12:51 AM 28.0 °F 21.7 °F 25.0 °F 88% 30.44 in 1.0 mi South 5.8 mph - 0.04 in Snow Light Snow
1:00 AM 28.0 °F 21.7 °F 26.1 °F 92% 30.38 in 1.2 mi South 5.8 mph - 0.01 in Snow Light Snow
1:26 AM 28.0 °F 22.8 °F 26.1 °F 92% 30.38 in 1.5 mi SW 4.6 mph - 0.02 in Snow Light Snow
1:42 AM 28.0 °F 22.8 °F 26.1 °F 92% 30.38 in 2.5 mi SSW 4.6 mph - 0.02 in Snow Light Snow
1:51 AM 28.0 °F 24.2 °F 26.1 °F 92% 30.43 in 3.0 mi South 3.5 mph - 0.02 in Snow Light Snow
2:12 AM 28.9 °F 23.9 °F 26.1 °F 89% 30.37 in 2.0 mi SSW 4.6 mph - 0.01 in Snow Light Snow
2:19 AM 28.9 °F 25.2 °F 26.1 °F 89% 30.36 in 1.8 mi South 3.5 mph - 0.01 in Snow Light Snow
2:38 AM 28.9 °F 25.2 °F 27.0 °F 92% 30.36 in 2.0 mi Variable 3.5 mph - 0.01 in Snow Light Snow
2:51 AM 28.9 °F 23.9 °F 27.0 °F 92% 30.40 in 1.5 mi South 4.6 mph - 0.02 in Snow Light Snow
3:05 AM 28.9 °F 22.8 °F 27.0 °F 92% 30.35 in 2.0 mi SSW 5.8 mph - 0.00 in Snow Light Snow
3:17 AM 28.9 °F 23.9 °F 27.0 °F 92% 30.35 in 1.8 mi SW 4.6 mph - 0.00 in Snow Light Snow
3:51 AM 28.9 °F 22.8 °F 27.0 °F 92% 30.39 in 1.5 mi SSW 5.8 mph - 0.02 in Snow Light Snow
4:01 AM 28.9 °F - 27.0 °F 92% 30.34 in 1.0 mi Calm Calm - 0.01 in Snow Light Snow
4:24 AM 28.9 °F - 27.0 °F 92% 30.33 in 1.0 mi North - - 0.04 in Snow Light Snow
4:51 AM 28.9 °F - 27.0 °F 92% 30.37 in 1.0 mi North - - 0.06 in Snow Light Snow
4:57 AM 28.9 °F - 27.0 °F 92% 30.32 in 1.5 mi North - - 0.01 in Snow Light Snow
5:09 AM 28.9 °F - 27.0 °F 92% 30.31 in 2.0 mi North - - 0.01 in Snow Light Snow
5:37 AM 28.9 °F - 27.0 °F 92% 30.30 in 4.0 mi North - - 0.02 in Snow Light Snow
5:51 AM 28.9 °F - 27.0 °F 92% 30.35 in 5.0 mi North - - 0.02 in Snow Light Snow
6:29 AM 28.0 °F - 27.0 °F 96% 30.29 in 5.0 mi North - - 0.00 in   Overcast
6:51 AM 28.0 °F - 28.0 °F 100% 30.34 in 5.0 mi North - - 0.00 in   Overcast
7:33 AM 28.0 °F - 27.0 °F 96% 30.28 in 4.0 mi North - - 0.00 in Rain Light Freezing Rain
7:43 AM 28.0 °F - 27.0 °F 96% 30.28 in 2.5 mi North - - 0.01 in Rain Light Freezing Rain
7:49 AM 28.4 °F - 26.6 °F 93% 30.28 in 1.8 mi North - - 0.02 in Snow Light Snow
7:51 AM 28.0 °F - 27.0 °F 96% 30.34 in 1.8 mi North - - 0.02 in Snow Light Snow
8:05 AM 28.0 °F - 27.0 °F 96% 30.28 in 1.8 mi North - - 0.01 in Snow Light Snow
8:14 AM 28.0 °F - 27.0 °F 96% 30.27 in 1.5 mi North - - 0.02 in Snow Light Snow
8:21 AM 28.0 °F - 27.0 °F 96% 30.27 in 2.0 mi North - - 0.02 in   Overcast
8:28 AM 28.0 °F - 27.0 °F 96% 30.27 in 2.5 mi North - - 0.03 in   Overcast
8:36 AM 28.0 °F - 27.0 °F 96% 30.27 in 2.0 mi North - - 0.03 in Snow Light Snow
8:39 AM 28.0 °F - 27.0 °F 96% 30.27 in 1.5 mi North - - 0.03 in Snow Light Snow
8:42 AM 28.0 °F - 27.0 °F 96% 30.27 in 1.0 mi North - - 0.04 in Snow Light Snow
8:51 AM 28.0 °F - 27.0 °F 96% 30.32 in 0.8 mi North - - 0.05 in Snow Light Snow
9:04 AM 28.0 °F - 27.0 °F 96% 30.26 in 1.0 mi North - - 0.01 in Snow Light Snow
9:17 AM 28.0 °F - 27.0 °F 96% 30.26 in 0.8 mi North - - 0.02 in Snow Light Snow
9:27 AM 28.0 °F - 27.0 °F 96% 30.26 in 0.8 mi North - - 0.03 in Snow Light Snow
9:51 AM 28.0 °F - 27.0 °F 96% 30.31 in 1.0 mi Calm Calm - 0.05 in Snow Light Snow
10:07 AM 28.0 °F - 28.0 °F 100% 30.25 in 0.8 mi Calm Calm - 0.01 in Snow Light Snow
10:51 AM 30.0 °F - 28.0 °F 92% 30.28 in 0.8 mi Calm Calm - 0.04 in Snow Light Snow
11:51 AM 30.0 °F - 28.9 °F 96% 30.26 in 0.8 mi Calm Calm - 0.04 in Snow Light Snow
12:33 PM 30.0 °F - 28.9 °F 96% 30.19 in 0.8 mi Calm Calm - 0.03 in Snow Light Snow
12:51 PM 30.0 °F - 28.9 °F 96% 30.24 in 0.8 mi Calm Calm - 0.04 in Snow Light Snow
1:08 PM 30.0 °F - 28.9 °F 96% 30.19 in 1.0 mi Calm Calm - 0.01 in Snow Light Snow
1:29 PM 30.0 °F - 30.0 °F 100% 30.19 in 0.8 mi Calm Calm - 0.02 in Snow Light Snow
1:47 PM 30.2 °F - 28.4 °F 93% 30.19 in 1.0 mi Calm Calm - 0.02 in Snow Light Snow
1:51 PM 30.9 °F - 28.9 °F 92% 30.24 in 1.2 mi Calm Calm - 0.02 in Snow Light Snow
2:01 PM 30.9 °F - 28.9 °F 92% 30.18 in 1.0 mi Calm Calm - 0.01 in Snow Light Snow
2:33 PM 30.9 °F - 30.0 °F 96% 30.18 in 0.8 mi Calm Calm - 0.02 in Snow Light Snow
2:43 PM 30.9 °F - 30.0 °F 96% 30.18 in 1.0 mi Calm Calm - 0.02 in Snow Light Snow
2:51 PM 30.9 °F - 30.0 °F 96% 30.23 in 1.2 mi Calm Calm - 0.03 in Snow Light Snow
3:02 PM 30.9 °F - 30.0 °F 96% 30.18 in 1.0 mi Calm Calm - 0.00 in Snow Light Snow
3:12 PM 30.9 °F - 30.0 °F 96% 30.18 in 1.0 mi Calm Calm - 0.00 in Snow Light Snow
3:14 PM 30.9 °F - 30.0 °F 96% 30.18 in 0.8 mi Calm Calm - 0.00 in Snow Light Snow
3:17 PM 30.9 °F - 30.9 °F 100% 30.18 in 1.0 mi Calm Calm - 0.00 in Snow Light Snow
3:34 PM 30.9 °F - 30.9 °F 100% 30.19 in 1.0 mi Calm Calm - 0.01 in Snow Light Snow
3:48 PM 30.2 °F 26.7 °F 30.2 °F 100% 30.19 in 1.5 mi North 3.5 mph - 0.01 in Snow Light Snow
3:51 PM 30.9 °F 26.2 °F 30.9 °F 100% 30.25 in 1.8 mi North 4.6 mph - 0.01 in Snow Light Snow
3:58 PM 30.9 °F 27.5 °F 30.9 °F 100% 30.20 in 2.5 mi North 3.5 mph - 0.00 in Snow Light Snow
4:10 PM 30.9 °F - 30.0 °F 96% 30.21 in 1.2 mi Calm Calm - 0.00 in Snow Light Snow
4:15 PM 30.9 °F - 30.0 °F 96% 30.20 in 2.0 mi Calm Calm - 0.00 in Snow Light Snow
4:51 PM 30.9 °F - 30.9 °F 100% 30.26 in 4.0 mi Calm Calm - 0.00 in   Overcast
5:10 PM 32.0 °F 26.4 °F 30.9 °F 96% 30.22 in 9.0 mi North 5.8 mph - N/A   Overcast
5:36 PM 32.0 °F 26.4 °F 30.9 °F 96% 30.23 in 8.0 mi NNW 5.8 mph - N/A   Overcast
5:51 PM 32.0 °F 27.5 °F 30.9 °F 96% 30.28 in 6.0 mi North 4.6 mph - N/A   Overcast
6:39 PM 30.9 °F 23.5 °F 30.9 °F 100% 30.25 in 1.8 mi NW 8.1 mph - N/A   Overcast
6:51 PM 30.9 °F 23.5 °F 30.9 °F 100% 30.31 in 3.0 mi NW 8.1 mph - N/A   Overcast
7:32 PM 32.0 °F 23.6 °F 30.9 °F 96% 30.27 in 9.0 mi NW 10.4 mph - N/A   Overcast
7:42 PM 32.0 °F 22.5 °F 30.9 °F 96% 30.28 in 10.0 mi NW 12.7 mph - N/A   Overcast
7:51 PM 32.0 °F 24.2 °F 30.0 °F 92% 30.33 in 10.0 mi NW 9.2 mph - N/A   Overcast
8:08 PM 32.0 °F 24.8 °F 30.0 °F 92% 30.29 in 10.0 mi North 8.1 mph - N/A   Overcast
8:17 PM 32.0 °F 24.8 °F 30.0 °F 92% 30.29 in 9.0 mi NW 8.1 mph - N/A   Overcast
8:24 PM 32.0 °F 25.6 °F 30.2 °F 93% 30.29 in 9.0 mi NNW 6.9 mph - N/A   Overcast
8:51 PM 30.9 °F 22.8 °F 30.0 °F 96% 30.37 in 8.0 mi NNW 9.2 mph - N/A   Overcast
9:09 PM 30.9 °F 22.2 °F 28.9 °F 92% 30.32 in 8.0 mi NNW 10.4 mph - N/A   Overcast
9:12 PM 30.9 °F 22.8 °F 28.9 °F 92% 30.32 in 8.0 mi NNW 9.2 mph - N/A   Mostly Cloudy
9:20 PM 30.0 °F 21.7 °F 28.0 °F 92% 30.33 in 8.0 mi NNW 9.2 mph - N/A   Mostly Cloudy
9:28 PM 30.0 °F 21.7 °F 28.0 °F 92% 30.33 in 8.0 mi NNW 9.2 mph - N/A   Overcast
9:51 PM 30.0 °F 22.4 °F 27.0 °F 88% 30.40 in 9.0 mi North 8.1 mph - N/A   Overcast
10:23 PM 28.9 °F 20.4 °F 27.0 °F 92% 30.35 in 7.0 mi NNW 9.2 mph - N/A   Overcast
10:51 PM 28.9 °F 22.8 °F 27.0 °F 92% 30.42 in 7.0 mi North 5.8 mph - N/A   Overcast
11:19 PM 28.9 °F 21.1 °F 27.0 °F 92% 30.36 in 5.0 mi North 8.1 mph - N/A   Overcast
11:35 PM 28.0 °F 20.0 °F 26.1 °F 92% 30.36 in 7.0 mi North 8.1 mph - N/A   Overcast
11:43 PM 28.4 °F 21.2 °F 26.6 °F 93% 30.37 in 7.0 mi North 6.9 mph - N/A   Overcast
11:51 PM 28.0 °F 20.0 °F 25.0 °F 88% 30.42 in 7.0 mi NNW 8.1 mph - N/A   Overcast